Volver al catálogo

STARLINK-36834

ActivoComunicacionesVLEO
NORAD 67959·PAYLOAD·🇺🇸 United States

Lanzado Feb 24, 2026 desde Vandenberg Space Force Base

Loading…

Próximos Pases (próximas 24 horas)

TLE

ActualizadoSource: CelesTrak SupGP

Época: Sep 15, 2026, 03:59 UTC

1 67959C 26037AD  26258.16645833 -.00020187  00000+0 -73125-3 0  2581
2 67959  43.0008 200.4234 0001376 274.2246   6.7805 15.27584169    17

Sigue STARLINK-36834 en tiempo real con AllMySat

Download on the App Store